Tracking 29892 objects as of 21-Nov-2024
HD Live streaming from Space Station
objects crossing your sky now

STARLINK-31185

Track STARLINK-31185 now!
10-day predictions
STARLINK-31185 is classified as:


NORAD ID: 58788
Int'l Code: 2024-012B
Perigee: 493.5 km
Apogee: 496.8 km
Inclination: 43.0 °
Period: 94.4 minutes
Semi major axis: 6866 km
RCS: Unknown
Launch date: January 15, 2024
Source: United States (US)
Launch site: AIR FORCE EASTERN TEST RANGE (AFETR)
Your satellite tracking list
Your tracking list is empty




NASA's NSSDC Master Catalog

Two Line Element Set (TLE):
1 58788U 24012B   24325.42142137 -.00000127  00000-0  49963-5 0  9992
2 58788  43.0014 320.1447 0002390 241.0389 119.0222 15.25933359 48747
Source of the keplerian elements: AFSPC